Grafton, ND

7:28 PM CST on January 19, 2018 (GMT -0600)
Grafton Municipal

Weather History for KGAF - January, 2013

Change the Weather History Date:

Wednesday, January 23, 2013

  Actual Average Record
Temperature  
Mean Temperature -8 °F -  
Max Temperature 0 °F 17 °F 40 °F (1981)
Min Temperature -16 °F 0 °F -30 °F (1966)
Degree Days  
Heating Degree Days 73    
Moisture  
Dew Point -16 °F    
Average Humidity 70    
Maximum Humidity 85    
Minimum Humidity 59    
Precipitation  
Precipitation 0.00 in - - ()
Sea Level Pressure  
Sea Level Pressure 30.45 in    
Wind  
Wind Speed 13 mph (NNW)    
Max Wind Speed 25 mph    
Max Gust Speed 32 mph    
Visibility 9 miles    
Events      
Averages and records for this station are not official NWS values.
T = Trace of Precipitation, MM = Missing Value Source: NWS Daily Summary

Daily Weather History Graph

Daily Weather History Graph

Search for Another Location

Airport or City:

Trip Planner

Search our weather history database for the weather conditions in past years. The results will help you decide how hot, cold, wet, or windy it might be!

Date:

Astronomy

Jan. 23, 2013 Rise Set
Actual Time 8:08 AM CST 5:14 PM CST
Civil Twilight 7:34 AM CST 5:49 PM CST
Nautical Twilight 6:55 AM CST 6:27 PM CST
Astronomical Twilight 6:18 AM CST 7:04 PM CST
Moon 2:22 PM CST (1/23) 5:25 AM CST (1/23)
Length of Visible Light 10h 15m
Length of Day
9h 06m
Waxing Gibbous, 89% of the Moon is Illuminated
Jan 23
Waxing Gibbous
Jan 26
Full
Feb 3
Last Quarter
Feb 10
New
Feb 17
First Quarter

Hourly Weather History & Observations

Time (CST) Temp. Windchill Dew Point Humidity Pressure Visibility Wind Dir Wind Speed Gust Speed Precip Events Conditions
12:15 AM -2.2 °F -10.4 °F -5.8 °F 85% 30.15 in 10.0 mi West 3.5 mph - N/A   Mostly Cloudy
12:35 AM -0.4 °F -13.4 °F -4.0 °F 85% 30.15 in 10.0 mi West 6.9 mph - N/A   Overcast
12:55 AM -2.2 °F -16.8 °F -5.8 °F 85% 30.14 in 10.0 mi WSW 8.1 mph - N/A   Mostly Cloudy
1:15 AM -2.2 °F -18.0 °F -7.6 °F 78% 30.14 in 10.0 mi West 9.2 mph - N/A   Partly Cloudy
1:35 AM -2.2 °F -14.2 °F -7.6 °F 78% 30.14 in 10.0 mi West 5.8 mph - N/A   Clear
1:55 AM -2.2 °F -16.8 °F -7.6 °F 78% 30.15 in 10.0 mi West 8.1 mph - N/A   Clear
2:15 AM -2.2 °F -18.0 °F -7.6 °F 78% 30.15 in 10.0 mi West 9.2 mph - N/A   Clear
2:35 AM -4.0 °F -19.0 °F -9.4 °F 78% 30.15 in 10.0 mi West 8.1 mph - N/A   Clear
2:55 AM -0.4 °F -16.7 °F -5.8 °F 78% 30.16 in 10.0 mi WNW 10.4 mph - N/A   Clear
3:15 AM -0.4 °F -18.4 °F -5.8 °F 78% 30.17 in 10.0 mi NW 12.7 mph - N/A   Clear
3:35 AM -0.4 °F -18.4 °F -7.6 °F 72% 30.17 in 10.0 mi NW 12.7 mph - N/A   Clear
3:55 AM -0.4 °F -18.4 °F -7.6 °F 72% 30.18 in 10.0 mi NNW 12.7 mph - N/A   Clear
4:15 AM -0.4 °F -17.6 °F -7.6 °F 72% 30.19 in 10.0 mi NNW 11.5 mph - N/A   Clear
4:35 AM -0.4 °F -21.7 °F -7.6 °F 72% 30.19 in 10.0 mi NNW 18.4 mph - N/A   Clear
4:55 AM -0.4 °F -20.5 °F -7.6 °F 72% 30.20 in 10.0 mi NNW 16.1 mph 21.9 mph N/A   Clear
5:15 AM -0.4 °F -20.5 °F -9.4 °F 66% 30.21 in 10.0 mi NNW 16.1 mph - N/A   Clear
5:35 AM -0.4 °F -22.3 °F -9.4 °F 66% 30.22 in 10.0 mi NNW 19.6 mph 25.3 mph N/A   Clear
5:55 AM -2.2 °F -24.1 °F -9.4 °F 71% 30.24 in 10.0 mi NNW 18.4 mph 26.5 mph N/A   Clear
6:15 AM -2.2 °F -24.7 °F -9.4 °F 71% 30.25 in 10.0 mi NNW 19.6 mph 25.3 mph N/A   Clear
6:35 AM -4.0 °F -28.1 °F -11.2 °F 71% 30.26 in 10.0 mi North 21.9 mph 28.8 mph N/A   Clear
6:55 AM -4.0 °F -27.6 °F -11.2 °F 71% 30.28 in 10.0 mi NNW 20.7 mph 28.8 mph N/A   Clear
7:15 AM -4.0 °F -28.1 °F -11.2 °F 71% 30.29 in 10.0 mi NNW 21.9 mph 28.8 mph N/A   Clear
7:35 AM -5.8 °F -28.8 °F - N/A% 30.31 in 10.0 mi NNW 18.4 mph - N/A   Clear
7:55 AM -5.8 °F -28.2 °F -13.0 °F 71% 30.32 in 8.0 mi NNW 17.3 mph - N/A   Clear
8:15 AM -5.8 °F -28.2 °F -11.2 °F 77% 30.33 in 10.0 mi NNW 17.3 mph 23.0 mph N/A   Mostly Cloudy
8:35 AM -5.8 °F -28.2 °F -13.0 °F 71% 30.34 in 10.0 mi NNW 17.3 mph 26.5 mph N/A   Scattered Clouds
8:55 AM -5.8 °F -29.4 °F -13.0 °F 71% 30.36 in 10.0 mi NNW 19.6 mph 25.3 mph N/A   Clear
9:15 AM -5.8 °F -30.5 °F -13.0 °F 71% 30.38 in 10.0 mi NNW 21.9 mph 27.6 mph N/A   Clear
9:35 AM -5.8 °F -29.9 °F -13.0 °F 71% 30.39 in 7.0 mi NNW 20.7 mph 32.2 mph N/A   Scattered Clouds
9:55 AM -7.6 °F -32.9 °F -13.0 °F 77% 30.41 in 7.0 mi NNW 21.9 mph 28.8 mph N/A   Partly Cloudy
10:15 AM -7.6 °F -33.9 °F -13.0 °F 77% 30.43 in 5.0 mi North 24.2 mph 29.9 mph N/A   Haze
10:35 AM -7.6 °F -33.9 °F -16.6 °F 65% 30.45 in 5.0 mi North 24.2 mph 31.1 mph N/A   Haze
10:55 AM -7.6 °F -32.9 °F -14.8 °F 71% 30.46 in 5.0 mi North 21.9 mph 29.9 mph N/A   Haze
11:15 AM -7.6 °F -32.9 °F -14.8 °F 71% 30.47 in 5.0 mi North 21.9 mph 29.9 mph N/A   Haze
11:35 AM -7.6 °F -33.4 °F -14.8 °F 71% 30.48 in 5.0 mi North 23.0 mph 31.1 mph N/A   Haze
11:55 AM -7.6 °F -32.9 °F -14.8 °F 71% 30.49 in 6.0 mi North 21.9 mph 29.9 mph N/A   Haze
12:15 PM -7.6 °F -32.3 °F -14.8 °F 71% 30.49 in 6.0 mi North 20.7 mph 26.5 mph N/A   Haze
12:35 PM -9.4 °F -35.2 °F -16.6 °F 71% 30.51 in 7.0 mi North 21.9 mph 29.9 mph N/A   Mostly Cloudy
12:55 PM -9.4 °F -36.3 °F -16.6 °F 71% 30.50 in 8.0 mi North 24.2 mph 31.1 mph N/A   Mostly Cloudy
1:15 PM -9.4 °F -36.8 °F -18.4 °F 65% 30.51 in 7.0 mi NNW 25.3 mph 29.9 mph N/A   Mostly Cloudy
1:35 PM -9.4 °F -34.1 °F -18.4 °F 65% 30.52 in 7.0 mi North 19.6 mph 26.5 mph N/A   Scattered Clouds
1:55 PM -9.4 °F -35.8 °F -18.4 °F 65% 30.54 in 7.0 mi NNW 23.0 mph 29.9 mph N/A   Mostly Cloudy
2:15 PM -9.4 °F -35.2 °F -20.2 °F 59% 30.54 in 6.0 mi North 21.9 mph 29.9 mph N/A   Haze
2:35 PM -11.2 °F -38.7 °F -20.2 °F 64% 30.55 in 8.0 mi NNW 24.2 mph 32.2 mph N/A   Partly Cloudy
2:55 PM -9.4 °F -32.8 °F -18.4 °F 65% 30.57 in 9.0 mi North 17.3 mph - N/A   Partly Cloudy
3:15 PM -11.2 °F -36.4 °F -20.2 °F 64% 30.59 in 9.0 mi North 19.6 mph 25.3 mph N/A   Partly Cloudy
3:35 PM -11.2 °F -36.4 °F -22.0 °F 59% 30.59 in 10.0 mi North 19.6 mph 25.3 mph N/A   Clear
3:55 PM -11.2 °F -36.4 °F -22.0 °F 59% 30.60 in 10.0 mi North 19.6 mph - N/A   Clear
4:15 PM -11.2 °F -34.4 °F -22.0 °F 59% 30.61 in 10.0 mi North 16.1 mph 23.0 mph N/A   Partly Cloudy
4:35 PM -11.2 °F -35.2 °F -22.0 °F 59% 30.61 in 10.0 mi North 17.3 mph 23.0 mph N/A   Clear
4:55 PM -13.0 °F -37.5 °F -22.0 °F 64% 30.63 in 10.0 mi North 17.3 mph 20.7 mph N/A   Clear
5:15 PM -13.0 °F -35.2 °F -22.0 °F 64% 30.64 in 10.0 mi North 13.8 mph - N/A   Scattered Clouds
5:35 PM -13.0 °F -34.3 °F -22.0 °F 64% 30.66 in 10.0 mi North 12.7 mph 17.3 mph N/A   Scattered Clouds
5:55 PM -13.0 °F -31.3 °F -22.0 °F 64% 30.65 in 10.0 mi NNW 9.2 mph - N/A   Clear
6:15 PM -13.0 °F -30.0 °F -22.0 °F 64% 30.66 in 10.0 mi NNW 8.1 mph - N/A   Clear
6:35 PM -14.8 °F -32.2 °F -22.0 °F 70% 30.66 in 10.0 mi NNW 8.1 mph - N/A   Clear
6:55 PM -14.8 °F -32.2 °F -23.8 °F 64% 30.67 in 10.0 mi NNW 8.1 mph - N/A   Clear
7:15 PM -14.8 °F -32.2 °F -22.0 °F 70% 30.66 in 10.0 mi NNW 8.1 mph - N/A   Clear
7:35 PM -16.6 °F -32.9 °F -23.8 °F 70% 30.67 in 10.0 mi NNW 6.9 mph - N/A   Clear
7:55 PM -16.6 °F -32.9 °F -23.8 °F 70% 30.68 in 10.0 mi NNW 6.9 mph - N/A   Clear
8:15 PM -16.6 °F -32.9 °F -23.8 °F 70% 30.67 in 10.0 mi NNW 6.9 mph - N/A   Clear
8:35 PM -16.6 °F -31.3 °F -23.8 °F 70% 30.67 in 10.0 mi NNW 5.8 mph - N/A   Clear
8:55 PM -16.6 °F -34.4 °F -23.8 °F 70% 30.67 in 10.0 mi North 8.1 mph - N/A   Clear
9:15 PM -16.6 °F -34.4 °F -23.8 °F 70% 30.68 in 10.0 mi North 8.1 mph - N/A   Clear
9:35 PM -16.6 °F -32.9 °F -23.8 °F 70% 30.67 in 10.0 mi North 6.9 mph - N/A   Clear
9:55 PM -16.6 °F -31.3 °F -23.8 °F 70% 30.68 in 10.0 mi North 5.8 mph - N/A   Clear
10:15 PM -16.6 °F -32.9 °F -23.8 °F 70% 30.69 in 10.0 mi NNE 6.9 mph - N/A   Clear
10:35 PM -16.6 °F -32.9 °F -23.8 °F 70% 30.69 in 10.0 mi NNE 6.9 mph - N/A   Clear
10:55 PM -16.6 °F -32.9 °F -23.8 °F 70% 30.69 in 10.0 mi NNE 6.9 mph - N/A   Clear
11:15 PM -16.6 °F -31.3 °F -23.8 °F 70% 30.68 in 10.0 mi NE 5.8 mph - N/A   Clear
11:35 PM -16.6 °F -29.3 °F -23.8 °F 70% 30.69 in 10.0 mi NE 4.6 mph - N/A   Clear
11:55 PM -16.6 °F - -23.8 °F 70% 30.69 in 10.0 mi Calm Calm - N/A   Clear